EW4354 Weather Reports


time (UTC)temp
C
wind
direction
speed
KPH
gust
KPH
rain 1hr
cm
rain 24hr
cm
rain mn
cm
humidity
%
barometer
mb
20260510174904 17 0 3.2 9.7 0.00 0.41 0.00 66 1012.4
20260510163905 17 2 8.0 19.3 0.00 0.51 0.00 73 1012.5
20260510162905 17 349 8.0 19.3 0.00 0.51 0.00 69 1012.6
20260510162406 18 302 4.8 12.9 0.00 0.51 0.00 71 1012.4
20260510160406 17 307 3.2 4.8 0.00 0.51 0.00 71 1012.3
20260510145905 16 278 4.8 11.3 0.00 0.58 0.00 78 1012.2
20260510144904 16 279 4.8 9.7 0.00 0.61 0.00 79 1012.1
20260510123905 13 239 3.2 4.8 0.00 0.69 0.00 87 1011.8
20260510122906 13 237 3.2 4.8 0.00 0.69 0.00 88 1011.6
20260510110404 11 173 0.0 4.8 0.00 0.76 0.00 92 1011.7
20260510105906 11 178 1.6 4.8 0.00 0.76 0.00 92 1011.7
20260510105404 11 195 1.6 4.8 0.00 0.76 0.00 92 1011.7
20260510104905 11 160 3.2 8.0 0.00 0.76 0.00 92 1011.6
20260510104405 11 193 3.2 9.7 0.00 0.79 0.00 92 1011.5
20260510103405 11 211 0.0 3.2 0.00 0.81 0.00 92 1011.3
20260510102904 11 213 1.6 4.8 0.00 0.86 0.00 92 1011.2
20260510101906 11 213 1.6 3.2 0.00 0.91 0.00 92 1011.0
20260510101405 11 213 0.0 3.2 0.00 0.91 0.00 92 1011.1
20260510100905 11 213 3.2 4.8 0.00 0.94 0.00 92 1010.9
20260510095904 11 193 1.6 4.8 0.00 0.94 0.00 92 1010.6
20260510095406 11 193 1.6 4.8 0.00 0.97 0.00 92 1010.7
20260510094904 11 194 3.2 8.0 0.00 0.97 0.00 92 1010.6
20260510094404 10 207 3.2 4.8 0.00 0.97 0.00 92 1010.5
20260510093404 10 195 1.6 4.8 0.00 0.97 0.00 92 1010.6
20260510092906 11 153 1.6 3.2 0.00 0.99 0.00 92 1010.6
20260510091905 11 153 1.6 3.2 0.00 1.02 0.00 91 1010.4
20260510091405 11 153 0.0 1.6 0.00 1.02 0.00 91 1010.5
20260510090905 11 153 1.6 3.2 0.00 1.04 0.00 91 1010.3
20260510090405 11 153 1.6 3.2 0.00 1.04 0.00 91 1010.1
20260510085904 11 194 1.6 4.8 0.00 1.04 0.00 91 1010.3
20260510085404 11 191 0.0 1.6 0.00 1.07 0.00 91 1010.0
20260510084906 11 191 1.6 4.8 0.00 1.07 0.00 91 1010.0
20260510084405 11 178 0.0 3.2 0.00 1.09 0.00 91 1010.0
20260510083904 11 178 1.6 3.2 0.00 1.12 0.00 91 1010.0
20260510083406 11 153 0.0 1.6 0.00 1.14 0.00 91 1010.0
20260510082905 11 153 1.6 3.2 0.00 1.17 0.00 91 1010.1
20260510073904 11 190 4.8 11.3 0.00 1.17 0.00 91 1010.7
20260510073404 11 192 1.6 4.8 0.00 1.17 0.00 91 1011.0
20260510072904 11 217 3.2 8.0 0.00 1.17 0.00 91 1011.0
20260510072405 11 237 3.2 4.8 0.00 1.17 0.00 91 1011.2
20260510071904 11 238 3.2 4.8 0.00 1.17 0.00 91 1011.1
20260510062905 11 242 3.2 8.0 0.00 1.17 0.00 92 1010.7
20260510062405 11 200 1.6 4.8 0.00 1.17 0.00 92 1010.6
20260510041923 11 201 1.6 4.8 0.00 1.17 0.00 88 1010.4
20260510022423 11 179 3.2 4.8 0.00 1.17 1.17 89 1010.3
20260510021914 11 182 1.6 4.8 0.00 1.17 1.17 89 1010.5
20260510021424 11 209 3.2 4.8 0.00 1.17 1.17 89 1010.6
20260510020935 11 202 1.6 4.8 0.00 1.17 1.17 89 1010.6
20260510020404 11 209 3.2 11.3 0.00 1.17 1.17 89 1010.7
20260510015920 11 169 1.6 8.0 0.00 1.17 1.17 89 1010.5
20260510014404 11 246 1.6 4.8 0.00 1.17 1.17 90 1010.5
20260510013405 11 193 0.0 3.2 0.00 1.17 1.17 89 1010.3
20260510012904 11 165 1.6 4.8 0.00 1.17 1.17 89 1010.5
20260510010406 11 162 1.6 4.8 0.00 1.17 1.17 90 1010.3
20260510005905 11 206 3.2 8.0 0.00 1.17 1.17 90 1010.5
20260509231917 12 181 3.2 9.7 0.00 1.17 1.17 88 1009.0
20260509225907 12 172 1.6 4.8 0.00 1.17 1.17 89 1009.2
20260509224909 12 159 3.2 4.8 0.00 1.17 1.17 89 1009.2
20260509224406 12 214 3.2 8.0 0.00 1.17 1.17 89 1009.3
20260509223410 12 227 1.6 8.0 0.00 1.17 1.17 89 1009.4
20260509222905 12 187 3.2 4.8 0.00 1.17 1.17 89 1009.4
20260509212404 12 303 1.6 9.7 0.00 1.17 1.17 91 1009.6
20260509211904 12 214 4.8 9.7 0.00 1.17 1.17 92 1009.7
20260509211405 12 252 4.8 12.9 0.00 1.17 1.17 92 1009.7
20260509210904 12 248 1.6 9.7 0.00 1.17 1.17 92 1009.7
20260509205426 11 218 3.2 9.7 0.03 1.17 1.17 92 1009.9
20260509204908 11 232 3.2 4.8 0.03 1.17 1.17 92 1010.0
20260509204404 11 236 4.8 11.3 0.03 1.17 1.17 92 1010.0
20260509203904 11 226 3.2 12.9 0.03 1.17 1.17 93 1010.0
20260509202904 12 231 3.2 11.3 0.05 1.17 1.17 93 1010.2
20260509201405 11 236 4.8 14.5 0.10 1.17 1.17 93 1010.3
20260509200905 11 247 4.8 12.9 0.13 1.17 1.17 93 1010.4
20260509200406 11 211 4.8 8.0 0.13 1.14 1.14 93 1010.4
20260509195904 11 229 3.2 4.8 0.15 1.14 1.14 93 1010.5
20260509194406 11 233 4.8 11.3 0.20 1.14 1.14 93 1010.8
20260509193905 11 242 3.2 8.0 0.23 1.14 1.14 93 1010.9
20260509192906 11 211 3.2 4.8 0.23 1.12 1.12 93 1010.8
20260509192404 11 227 3.2 8.0 0.25 1.12 1.12 93 1010.9
20260509191904 11 242 1.6 4.8 0.25 1.09 1.09 93 1011.0
20260509191404 11 243 3.2 4.8 0.23 1.07 1.07 93 1010.9
20260509190904 11 166 0.0 1.6 0.23 1.04 1.04 93 1011.0
20260509190404 11 166 0.0 4.8 0.20 1.02 1.02 93 1010.9
20260509185904 11 156 3.2 8.0 0.18 0.99 0.99 93 1011.0
20260509185404 11 131 1.6 4.8 0.15 0.97 0.97 93 1010.9
20260509183904 11 128 1.6 3.2 0.15 0.91 0.91 93 1011.1
20260509183404 11 125 0.0 3.2 0.13 0.89 0.89 93 1011.0
20260509182904 11 126 1.6 3.2 0.13 0.89 0.89 93 1011.0
20260509182405 11 233 1.6 3.2 0.13 0.86 0.86 93 1011.1
20260509181904 11 234 1.6 4.8 0.10 0.84 0.84 93 1010.9
20260509181404 11 245 1.6 4.8 0.10 0.84 0.84 93 1010.9
20260509180905 10 76 1.6 4.8 0.10 0.81 0.81 93 1010.9
20260509175904 10 250 3.2 4.8 0.10 0.81 0.81 93 1010.9